星链-5610 (STARLINK-5610 )

导读

STARLINK-5610是美国SpaceX公司星链(Starlink)项目的第二代低轨卫星互联网卫星,于2023年7月7日发射升空,属于星链大规模组网中的一颗卫星。星链计划旨在通过近地轨道卫星组网,为全球提供高速低延迟宽带服务,该卫星服役于低地球轨道,配备相控阵天线与氪离子推进系统,支持自主轨道机动和避碰,助力星链完成全球覆盖,为偏远地区、灾难场景等提供互联网接入服务。

基本信息
目录编号:
57244
目录名称:
STARLINK-5610
国际标识:
2023-094AC
轨道中心:
EARTH
卫星名称:
星链-5610
卫星全名:
星链-5610 (STARLINK-5610 )
卫星状态:
在轨 (已飞行1155 天)
发射日期:
2023-07-07 UTC
国别 :
美国 (US)
星等 :
--
轨道信息
数据来源 国际轨道数据
星历时间: 2026-09-03T22:13:37+0800
16小时前
查看轨道信息
半长轴: 6861.196km
偏心率: 0.0001453
轨道倾角: 43.002°
近地点辐角 257.718°
升交点赤经 94.701°
平近点角 102.351°
近地点: 482.062km
远地点: 484.056km
周期: 94.267分钟
每日圈数: 15.275767
详细信息
固有亮度:
5
最大亮度:
2.4
卫星平台:
Starlink v1.5
覆盖范围:
全球
运营商:
太空探索技术公司
运营商所在国:
美国
制造商(研发单位):
太空探索技术公司
制造商所在国:
美国
使用方式:
暂无
卫星简介
星链(Starlink)计划是由太空探索技术公司(SpaceX)提出的一个巨型低轨卫星互联网星座项目,计划在2019年至2024年间在太空搭建由约1.2万颗卫星组成的“星链”网络,其中1584颗将部署在地球上空550千米处的近地轨道,并从2020年开始工作。该卫星仍在工作。
2D轨道图
3D轨道图
轨道高度分析图
轨道倾角分析图
轨道综合分析图
查看轨道综合分析图
交会数据列表
事件ID 空间交会对象 最接近时刻(TCA) 交会距离 交会风险概率(CRP) 交会风险指数(CRI) 操作
CDM_260903-153005-724406-385121
2026-09-03T
15:30:02+0000
0.255 km
中距离
4.075815E-4 高风险 0.87
CDM_260904-031605-724406-385121
2026-09-04T
03:16:11+0000
1.035 km
极远距离
1.137578E-5 中风险 0.56
CDM_260904-045005-724406-385121
2026-09-04T
04:50:20+0000
1.456 km
极远距离
3.598902E-6 低风险 0.46
CDM_260905-014505-505405-724421
2026-09-05T
01:45:33+0000
1.879 km
极远距离
3.222237E-6 低风险 0.45
CDM_260903-135505-724406-385121
2026-09-03T
13:55:52+0000
1.809 km
极远距离
1.899397E-6 低风险 0.41
CDM_260904-140705-511005-724422
2026-09-04T
14:07:30+0000
2.792 km
极远距离
1.320031E-6 低风险 0.37
CDM_260904-012605-724406-192421
2026-09-04T
01:26:17+0000
2.496 km
极远距离
1.190427E-6 低风险 0.37
CDM_260903-170405-724406-385121
2026-09-03T
17:04:11+0000
2.327 km
极远距离
1.07028E-6 低风险 0.36